Regional Weather Roundup
Issued by NWS Green Bay, WI

Home | Current Version | Previous Version | Text Only | Print | Product List | Glossary On
Versions: 1 2 3 4 5 6 7 8 9 10 11 12 13 14 15 16 17 18 19 20 21 22 23 24 25 26 27 28 29 30 31 32 33 34 35 36 37 38 39 40 41 42 43 44 45 46 47 48 49 50
416
ASUS43 KGRB 102311
RWRGRB

NORTH-CENTRAL AND NORTHEAST WISCONSIN REGIONAL WEATHER ROUNDUP
NATIONAL WEATHER SERVICE GREEN BAY WI
500 PM CST SUN DEC 10 2017

WIZ005-009-010>012-018-019-110000-
NORTH CENTRAL WISCONSIN

CITY           SKY/WX    TMP DP  RH WIND       PRES   REMARKS
IRONWOOD       CLOUDY    18  11  74 NW8       30.01R WCI   8
MANITOWISH WTR LGT SNOW  17  15  95 NW6       29.96R WCI   8
ARBOR VITAE    LGT SNOW  19  16  86 NW5       29.96R
EAGLE RIVER    FLURRIES  18  11  76 NW8       29.94R WCI   7
LAND O LAKES   LGT SNOW  17  13  86 NW3       29.96R
RHINELANDER    FLURRIES  19  13  77 N8        29.96R WCI   9
PHILLIPS       CLOUDY    18  15  88 N3        29.98R
ANTIGO         FLURRIES  20  16  84 N8        29.96R
TOMAHAWK       FLURRIES  19  15  81 NW6       29.98R
MERRILL        CLOUDY    21  15  76 NW7       29.98R
$$

WIZ013-073-110000-
NORTHEAST WISCONSIN

CITY           SKY/WX    TMP DP  RH WIND       PRES   REMARKS
IRON MOUNTAIN  CLOUDY    18  10  71 NW15      29.96R WCI   4
MARINETTE      FLURRIES  24  16  71 N8        30.00R
OCONTO         CLOUDY    24  15  68 N5        30.00R
$$

WIZ017-030-035>037-045-110000-
CENTRAL WISCONSIN

CITY           SKY/WX    TMP DP  RH WIND       PRES   REMARKS
MEDFORD        CLOUDY    21  14  73 N9        29.97R
WAUSAU         CLOUDY    22  15  75 N8        29.97R
MOSINEE        CLOUDY    23  18  80 NW8       29.99R
MARSHFIELD     CLOUDY    23  16  74 NW10      29.99R
WISC RAPIDS    CLOUDY    25  17  72 NW9       30.02R
STEVENS POINT  CLOUDY    23  15  74 NW5       30.00R
WAUPACA        CLOUDY    28  19  69 W7        30.01R
SHAWANO        CLOUDY    27  17  64 NW6       29.99R
CLINTONVILLE   NOT AVBL
WAUTOMA        CLOUDY    25  18  74 NW5       30.02R
$$

WIZ038-039-048-051-110000-
FOX VALLEY

CITY           SKY/WX    TMP DP  RH WIND       PRES   REMARKS
NWS GREEN BAY  CLOUDY    26  18  71 NW8       29.99R
APPLETON       CLOUDY    25  16  68 NW9       29.97R
OSHKOSH        CLOUDY    25  19  78 NW7       29.99R
FOND DU LAC    CLOUDY    26  17  68 NW6       30.00R
$$

WIZ022-050-052-110000-
EAST CENTRAL WISCONSIN

CITY           SKY/WX    TMP DP  RH WIND       PRES   REMARKS
EPHRAIM        CLOUDY    23  14  68 N15G21    29.96R
WASHINGTON ISL CLOUDY    21  13  71 N18G24    29.97R WCI   6
STURGEON BAY   CLOUDY    25  15  66 NW10      29.98R
MANITOWOC      CLOUDY    25  18  74 NW8       29.99R
SHEBOYGAN      CLOUDY    25  18  74 NW5       29.99R
$$

LMZ563-521-522-541>543-110000-
LAKESHORE

STATION/POSITION TIME  TEMP    WIND        PRES    VSBY  WAVE
                       AIR SEA DIR/SP/G                  HT/PER
                 (UTC) (F)     (DEG/KT/KT) (MB)    (MI)  (FT/S)
SHEBOYGAN LKSHOR 2300   26     310/  9/ 11 1016.6R
KEWAUNEE LKSHORE 2242   26     330/  6/  9 1014.2R
NORTHPORT PIER   2240   25     340/ 18/ 28 1014.6R
SISTER BAY LKSHO 2205          340/ 15/ 19   N/A
MENOMINEE LKSHOR 2242   25     300/ 10/ 14 1015.0R
$$




USA.gov is the U.S. government's official web portal to all federal, state and local government web resources and services.